Overview Statistics Trail Chart Weather Telemetry Raw packets
 

This is the latest recevied weather packets stored in our database for station/object KE5QKR. If no packets are shown the sender has not sent any weather packets the latest 10 day(s).

<< 102 103 104 105 106 107 108 >>
Time Temp. Humidity Pressure Rain* Wind** Luminosity Snow
1777136160 23.89° C 88% 1009.4 hPa 0 mm - 503 W/m² -
1777135856 23.33° C 89% 1009.6 hPa 0 mm - 709 W/m² -
1777135552 22.22° C 93% 1009.6 hPa 0 mm - 483 W/m² -
1777135250 21.67° C 94% 1009.7 hPa 0 mm - 707 W/m² -
1777134946 21.67° C 98% 1009.7 hPa 0 mm - 344 W/m² -
1777134643 21.67° C 99% 1009.8 hPa 0 mm - 464 W/m² -
1777134339 21.11° C 99% 1009.5 hPa 0 mm - 361 W/m² -
1777134036 21.11° C 99% 1009.6 hPa 0 mm - 259 W/m² -
1777133732 20.56° C 99% 1009.8 hPa 0 mm - 621 W/m² -
1777133432 20.56° C 99% 1009.9 hPa 0 mm - 372 W/m² -
1777133127 20.56° C 99% 1009.7 hPa 0 mm - 864 W/m² -
1777132823 20.56° C 99% 1009.9 hPa 0 mm - 831 W/m² -
1777132519 20.56° C 99% 1010.1 hPa 0 mm - 432 W/m² -
1777132216 20° C 99% 1010.1 hPa 0 mm - 296 W/m² -
1777131912 20° C 99% 1010.1 hPa 0 mm - 466 W/m² -
1777131610 20° C 99% 1010.1 hPa 0 mm - 386 W/m² -
1777131309 20° C 99% 1010.4 hPa 0 mm - 356 W/m² -
1777131004 19.44° C 99% 1010.2 hPa 0 mm - 357 W/m² -
1777130700 19.44° C 99% 1010.5 hPa 0 mm - 272 W/m² -
1777130396 19.44° C 99% 1010.6 hPa 0 mm - 174 W/m² -
1777130092 19.44° C 99% 1010.6 hPa 0 mm - 226 W/m² -
1777129788 18.89° C 99% 1010.3 hPa 0 mm - 211 W/m² -
1777129483 18.89° C 99% 1010.3 hPa 0 mm - 196 W/m² -
1777129182 18.89° C 99% 1010.4 hPa 0 mm - 178 W/m² -
1777128878 18.33° C 99% 1010.3 hPa 0 mm - 159 W/m² -

* Rain latest hour (hover to see other rain measurements)
** Current wind speed in m/s (hover to see current wind gust speed)